Cloud_Cover
14 16 24 20 5 83 100 64 5 48 98 100 57 5 0 0 0 0 0 0 0 0 0 0 0 0 0 0 0 0 7 93 60 4 1 57 81 50 5 0 52 100 100 78 80
9 14 24 61 18 14 99 100 78 9 33 36 9 2 0 0 0 0 0 0 0 0 0 0 0 0 0 0 0 0 4 5 33 2 0 5 8 12 3 0 0 1 98 84 100
76 15 10 6 18 21 53 8 5 5 5 5 5 5 0 0 0 0 0 0 0 0 0 0 0 0 0 0 0 0 4 1 0 0 0 2 5 5 0 0 0 0 0 94 100
100 33 16 5 22 10 5 5 5 5 5 5 5 5 0 0 0 0 0 0 0 0 0 0 0 0 0 0 0 0 0 0 0 0 0 2 5 4 0 0 0 0 0 0 0
100 100 30 48 9 8 5 5 5 5 5 5 5 5 2 0 2 5 0 0 0 0 0 0 0 0 0 0 0 0 0 0 0 0 0 0 4 3 0 0 0 0 0 0 0
100 100 100 41 5 5 5 5 5 5 64 48 5 5 5 2 5 1 0 0 0 0 0 0 0 0 0 0 0 0 0 0 0 0 0 0 0 0 0 0 0 0 0 0 0
6 97 100 6 5 5 5 5 5 5 35 61 64 14 5 0 3 0 0 0 0 0 0 0 0 0 0 0 0 0 0 0 0 0 0 0 0 0 0 0 0 0 0 0 0
22 99 26 8 10 5 5 5 5 47 56 6 5 5 5 0 2 0 0 0 0 0 0 0 0 0 0 0 0 0 0 0 0 0 0 0 0 0 0 0 0 0 0 0 0
61 5 5 5 6 5 50 12 14 27 5 5 5 5 5 4 0 0 0 0 0 0 0 0 0 0 0 0 0 0 0 0 0 0 0 0 0 0 0 0 0 0 0 0 0
8 29 4 5 5 5 8 8 5 5 8 5 5 5 5 0 0 0 0 0 0 0 0 0 0 0 0 0 0 0 0 0 0 0 0 0 0 0 0 0 0 0 0 0 0
11 5 5 5 5 5 5 33 16 5 5 5 4 5 0 0 0 0 0 0 0 0 0 0 0 0 0 0 0 0 0 0 0 0 0 0 0 0 0 0 0 0 0 0 0
5 5 5 5 5 5 5 23 5 5 5 5 2 0 0 0 0 0 0 0 0 0 0 0 0 0 0 0 0 0 0 0 0 0 0 0 0 0 0 0 0 0 0 0 0
5 5 5 5 5 5 5 5 5 5 5 0 0 0 0 0 0 0 0 0 0 0 0 0 0 0 0 0 0 0 0 0 0 0 0 0 0 0 0 0 0 0 0 0 0
37 5 5 6 5 5 5 5 5 5 5 5 0 0 0 0 0 0 0 0 0 0 0 1 0 0 0 4 4 0 0 0 0 0 0 0 1 5 1 0 0 0 0 0 0
5 5 13 80 41 5 5 5 5 4 5 0 5 4 1 0 0 0 0 0 0 0 0 3 0 0 0 4 1 5 0 0 0 0 0 0 2 99 4 0 0 0 1 5 1
5 5 5 5 34 35 8 5 5 2 5 5 23 6 5 0 0 0 0 2 0 0 0 5 0 0 3 0 0 4 0 0 0 0 0 3 0 49 3 1 0 0 1 5 1
5 5 5 5 5 5 5 5 0 1 4 6 62 30 5 0 3 0 0 0 6 3 4 0 0 0 0 2 5 4 2 2 0 0 2 7 0 30 60 0 0 0 0 0 5
0 0 0 1 1 0 0 3 2 0 0 0 1 5 5 5 3 5 5 5 56 45 5 0 6 40 5 2 1 0 3 0 0 0 1 0 0 69 9 4 0 0 0 1 0
0 0 0 0 0 0 0 0 0 0 3 0 0 0 3 1 0 0 0 0 0 0 0 5 5 100 100 100 100 100 7 65 5 5 3 4 5 5 5 5 2 0 0 0 0
0 0 0 0 0 0 0 0 0 0 0 0 0 0 0 0 0 0 0 0 0 0 0 0 0 8 53 9 71 52 100 100 44 5 3 1 4 5 5 9 0 0 0 0 0
0 0 0 0 0 0 0 0 0 0 0 0 0 0 0 0 0 0 0 0 0 0 0 0 0 0 51 82 27 100 39 100 100 92 92 5 8 78 37 5 0 0 0 0 0
4 4 0 0 0 0 0 0 0 0 0 0 0 0 0 0 0 0 0 0 0 0 0 0 0 0 0 7 100 60 5 7 92 5 5 5 1 10 8 5 0 0 0 0 29
13 5 2 1 1 0 0 0 0 0 0 0 0 0 0 0 0 0 0 0 0 1 0 1 0 2 0 0 5 5 53 23 38 49 0 88 0 3 7 19 3 0 16 56 100
20 22 5 5 5 4 4 0 1 4 2 0 0 0 0 0 0 0 0 0 0 2 5 5 4 28 85 86 40 22 98 100 100 11 4 79 2 5 27 64 3 8 3 40 76
3 5 5 5 4 0 0 0 0 0 0 0 0 0 0 0 0 0 0 0 0 0 0 0 0 2 7 68 91 28 4 2 6 7 94 50 7 3 81 50 4 1 0 2 77
4 5 5 5 5 0 0 0 0 0 0 0 0 0 0 0 0 0 0 0 0 0 0 0 0 0 0 2 79 87 5 4 3 1 0 34 13 6 31 4 2 3 1 1 4
3 3 4 0 0 0 0 0 0 0 0 0 0 0 0 0 0 0 0 0 0 0 1 5 19 18 8 1 1 4 14 71 82 15 5 42 8 5 69 5 0 0 0 1 0